[[{"header":{"parameterUnit":"m.s-1","parameterCategory":1,"la1":30.2991,"la2":30.254,"lo1":-89.0895,"lo2":-89.0444,"dx":0.0017,"dy":0.0017,"nx":28,"ny":28,"refTime":"2022-11-03T15:00:00:Z","depth":0,"parameterNumber":2,"parameterNumberName":"U-component_of_WINDS"},"data":[0,0,0,0,0,0,0,0,0,0,0,0,0,0,0,0,0,0,0,0,0,0,0,0,0,0,0,0,0,0,0,0,0,0,0,0,0,0,0,0,0,0,0,0,0,0,0,0,0,0,0,0,0,0,0,0,0,0,-4.0366,-4.0366,0,-4.0425,-4.0426,-4.0427,-4.037,-4.0368,-4.0365,-4.0363,-4.0425,-4.0429,-4.0432,0,0,0,0,0,0,0,0,0,0,0,0,0,-4.0206,-4.0209,-4.0366,-4.0366,-4.0367,-4.0425,-4.0426,-4.0427,-4.037,-4.0368,-4.0365,-4.0362,-4.0424,-4.0428,-4.0433,0,0,0,0,0,0,0,0,0,0,0,0,0,-4.0271,-4.021,-4.0365,-4.0346,-4.0345,-4.0425,-4.0426,-4.0427,-4.0371,-4.0367,-4.0364,-4.0361,-4.0422,-4.0428,-4.0433,-4.0536,0,0,-4.045,-4.0453,0,0,0,0,0,0,0,0,-4.0268,-4.0277,-4.0348,-4.0347,-4.0346,-4.0387,-4.0392,-4.0463,-4.0372,-4.0361,-4.0363,-4.0359,-4.0415,-4.0421,-4.044,-4.0539,-4.0541,-4.0451,-4.0454,-4.0457,-4.0458,0,0,0,0,0,0,0,-4.0263,-4.0274,-4.0389,-4.0349,-4.0348,-4.0335,-4.0341,-4.0405,-4.0406,-4.0362,-4.0358,-4.0365,-4.0414,-4.0434,-4.0441,-4.0542,-4.0451,-4.0456,-4.0459,-4.0461,-4.0731,-4.0735,0,0,0,0,0,0,-4.0261,-4.0271,-4.0387,-4.0391,-4.0298,-4.0341,-4.0347,-4.0377,-4.0405,-4.0406,-4.0368,-4.0363,-4.0426,-4.0434,-4.0443,-4.0566,-4.0457,-4.0462,-4.0465,-4.0728,-4.0732,-4.0736,0,0,0,0,0,0,-4.0257,-4.0271,-4.0385,-4.033,-4.0343,-4.0347,-4.0381,-4.038,-4.04,-4.041,-4.041,-4.0389,-4.0424,-4.0435,-4.0514,-4.0567,-4.0464,-4.047,-4.0723,-4.0729,-4.0734,-4.0812,0,0,0,0,0,0,-4.0253,-4.0271,-4.0309,-4.0331,-4.0347,-4.0454,-4.0385,-4.0384,-4.041,-4.0403,-4.043,-4.0431,-4.0422,-4.0506,-4.0519,-4.0573,-4.0474,-4.0718,-4.0726,-4.0733,-4.0805,-4.082,-4.0832,0,0,0,0,0,-4.0247,-4.0328,-4.0311,-4.0325,-4.0394,-4.0457,-4.0466,-4.0454,-4.0415,-4.0454,-4.0461,-4.043,-4.0559,-4.0514,-4.0529,-4.0585,-4.0715,-4.0724,-4.0732,-4.0798,-4.0817,-4.0832,0,0,0,0,0,0,-4.031,-4.033,-4.0311,-4.0401,-4.0428,-4.0447,-4.0496,-4.0474,-4.0512,-4.0504,-4.0488,-4.0495,-4.0578,-4.059,-4.0539,-4.0687,-4.0631,-4.0643,-4.0676,-4.0694,-4.0707,-4.0702,-4.0479,0,0,0,0,0,-4.0335,-4.0384,-4.0399,-4.0477,-4.0491,-4.0492,-4.0519,-4.0508,-4.0535,-4.0546,-4.0558,-4.0586,-4.0633,-4.0664,-4.0708,-4.0807,-4.0813,-4.0853,-4.0867,-4.0879,-4.0889,-4.0944,-4.0962,-4.0765,-4.0764,-4.0764,0,0,-4.0385,-4.0402,-4.0434,-4.049,-4.0509,-4.0561,-4.0501,-4.0558,-4.0597,-4.0554,-4.0629,-4.0641,-4.0671,-4.0761,-4.0801,-4.0773,-4.0945,-4.089,-4.0899,-4.0902,-4.0955,-4.0973,-4.099,-4.077,-4.0769,-4.0768,0,0,-4.0504,-4.0522,-4.0589,-4.0611,-4.0641,-4.0642,-4.0658,-4.0682,-4.0688,-4.0763,-4.0733,-4.078,-4.0861,-4.0884,-4.0907,-4.1039,-4.1013,-4.1054,-4.1126,-4.118,-4.1196,-4.1209,-4.1257,-4.1275,-4.1065,-4.1065,-4.1065,0,-4.0563,-4.0639,-4.0627,-4.0687,-4.0713,-4.0678,-4.0747,-4.0769,-4.0812,-4.0832,-4.08,-4.0903,-4.0921,-4.1017,-4.1049,-4.1069,-4.1088,-4.105,-4.1194,-4.1208,-4.1221,-4.1266,-4.1284,-4.107,-4.1069,-4.1069,-4.1068,0,-4.0711,-4.0765,-4.0816,-4.086,-4.0892,-4.0956,-4.0955,-4.0989,-4.0977,-4.0981,-4.106,-4.1081,-4.113,-4.1152,-4.114,-4.1247,-4.1229,-4.1197,-4.1139,-4.1245,-4.1287,-4.1304,-4.1076,-4.1075,-4.1073,-4.1072,0,0,-4.0867,-4.0906,-4.0925,-4.0945,-4.0978,-4.102,-4.1085,-4.1132,-4.1163,-4.1196,-4.1249,-4.1321,-4.1292,-4.1318,-4.1309,-4.1356,-4.1461,-4.1318,-4.1318,-4.1344,-4.1582,-4.1606,-4.1626,-4.1445,-4.1448,-4.1451,-4.158,0,-4.0987,-4.1097,-4.109,-4.1194,-4.1245,-4.1215,-4.1271,-4.1299,-4.1306,-4.1351,-4.1359,-4.141,-4.1367,-4.1383,-4.1429,-4.1439,-4.1509,-4.1429,-4.1496,-4.1498,-4.1488,-4.1648,-4.1672,-4.1793,-4.1596,-4.1599,-4.1601,0,-4.114,-4.1179,-4.1289,-4.1317,-4.1338,-4.1389,-4.1433,-4.1477,-4.1508,-4.151,-4.1541,-4.1525,-4.1592,-4.1535,-4.1627,-4.1574,-4.1601,-4.1611,-4.1615,-4.1619,-4.1555,-4.1657,-4.1831,-4.1849,-4.1627,-4.1625,-4.1623,0,-4.1243,-4.1324,-4.14,-4.1419,-4.1453,-4.149,-4.1506,-4.1534,-4.1565,-4.1605,-4.1624,-4.1672,-4.1697,-4.1735,-4.1733,-4.1691,-4.1827,-4.177,-4.1831,-4.1832,-4.1859,-4.1857,-4.204,-4.1879,-4.1879,-4.1878,-4.1878,0,-4.1377,-4.1446,-4.1447,-4.1494,-4.1571,-4.1563,-4.164,-4.1652,-4.1678,-4.1728,-4.1706,-4.1753,-4.1748,-4.1797,-4.1796,-4.1874,-4.1885,-4.189,-4.1888,-4.1891,-4.189,-4.1907,-4.1899,-4.1883,-4.1882,-4.1881,-4.188,0,-4.1504,-4.1508,-4.1589,-4.1617,-4.1626,-4.1681,-4.1705,-4.175,-4.1757,-4.1821,-4.1835,-4.1846,-4.1902,-4.1905,-4.1969,-4.1969,-4.2063,-4.2053,-4.2052,-4.205,-4.2112,-4.2106,-4.231,-4.2337,-4.216,-4.2161,-4.2163,0,-4.1588,-4.164,-4.1674,-4.1706,-4.1725,-4.1777,-4.1808,-4.1804,-4.1838,-4.188,-4.1921,-4.1975,-4.2018,-4.211,-4.2124,-4.2174,-4.2165,-4.2233,-4.2172,-4.2174,-4.2166,-4.2162,-4.2168,-4.2245,-4.2247,-4.2248,-4.2249,0,-4.1738,-4.1738,-4.1783,-4.1831,-4.187,-4.1907,-4.1941,-4.1969,-4.1969,-4.2009,-4.2067,-4.21,-4.2168,-4.2223,-4.2272,-4.229,-4.2271,-4.2269,-4.2286,-4.2289,-4.2286,-4.2288,-4.2084,-4.2264,-4.2262,-4.2261,-4.2261,-4.226,-4.1845,-4.1891,-4.1923,-4.1976,-4.2002,-4.2036,-4.208,-4.2093,-4.2141,-4.2196,-4.2191,-4.2255,-4.2289,-4.2354,-4.2376,-4.2428,-4.2404,-4.2429,-4.2435,-4.2441,-4.2447,-4.2279,-4.2437,-4.2436,-4.2436,-4.2436,-4.2435,0,-4.1993,-4.2013,-4.2062,-4.2112,-4.2154,-4.2133,-4.2172,-4.2208,-4.2265,-4.2298,-4.2342,-4.241,-4.2464,-4.2484,-4.2537,-4.2575,-4.2567,-4.2589,-4.2585,-4.259,-4.2465,-4.2445,-4.2594,-4.2594,-4.2594,-4.2594,-4.2594,-4.2594,-4.2075,-4.2152,-4.2157,-4.2248,-4.2267,-4.233,-4.2354,-4.2386,-4.2412,-4.2489,-4.2534,-4.2547,-4.2575,-4.2631,-4.2681,-4.2685,-4.2706,-4.2731,-4.2732,-4.2614,-4.2598,-4.2583,-4.2564,-4.2736,-4.2736,-4.2853,-4.2854,-4.2855]},{"header":{"parameterUnit":"m.s-1","parameterCategory":1,"la1":30.2991,"la2":30.254,"lo1":-89.0895,"lo2":-89.0444,"dx":0.0017,"dy":0.0017,"nx":28,"ny":28,"refTime":"2022-11-03T15:00:00:Z","depth":0,"parameterNumber":3,"parameterNumberName":"V-component_of_WINDS"},"data":[0,0,0,0,0,0,0,0,0,0,0,0,0,0,0,0,0,0,0,0,0,0,0,0,0,0,0,0,0,0,0,0,0,0,0,0,0,0,0,0,0,0,0,0,0,0,0,0,0,0,0,0,0,0,0,0,0,0,1.5621,1.5621,0,1.5633,1.5634,1.5634,1.5629,1.5628,1.5628,1.5628,1.5637,1.5637,1.5638,0,0,0,0,0,0,0,0,0,0,0,0,0,1.5593,1.5593,1.5621,1.5621,1.5622,1.5633,1.5634,1.5634,1.5629,1.5628,1.5628,1.5628,1.5637,1.5637,1.5638,0,0,0,0,0,0,0,0,0,0,0,0,0,1.5605,1.5594,1.5621,1.5621,1.5621,1.5633,1.5634,1.5634,1.5629,1.5628,1.5628,1.5628,1.5636,1.5637,1.5638,1.5651,0,0,1.564,1.5641,0,0,0,0,0,0,0,0,1.5604,1.5606,1.5621,1.5621,1.5621,1.5629,1.5627,1.5639,1.5629,1.5626,1.5628,1.5627,1.5634,1.5635,1.5638,1.5651,1.5652,1.564,1.5641,1.5641,1.5641,0,0,0,0,0,0,0,1.5603,1.5605,1.5626,1.5621,1.5621,1.5619,1.5621,1.5629,1.5632,1.5626,1.5626,1.5627,1.5634,1.5638,1.5639,1.5652,1.564,1.5641,1.5641,1.5642,1.5679,1.568,0,0,0,0,0,0,1.5603,1.5605,1.5626,1.5626,1.5611,1.562,1.5622,1.5627,1.5632,1.5632,1.5628,1.5627,1.5637,1.5638,1.5639,1.5656,1.5641,1.5642,1.5642,1.5679,1.5679,1.568,0,0,0,0,0,0,1.5602,1.5605,1.5625,1.5616,1.5618,1.5621,1.5627,1.5627,1.5631,1.5633,1.5634,1.5631,1.5636,1.5638,1.5649,1.5656,1.5642,1.5643,1.5678,1.5679,1.568,1.569,0,0,0,0,0,0,1.5602,1.5605,1.5609,1.5616,1.5619,1.5635,1.5627,1.5628,1.5632,1.5632,1.5636,1.5636,1.5636,1.5648,1.565,1.5657,1.5643,1.5677,1.5678,1.5679,1.5689,1.5691,1.5693,0,0,0,0,0,1.5601,1.561,1.561,1.5612,1.5625,1.5636,1.5637,1.5637,1.5633,1.5638,1.564,1.5636,1.5656,1.5649,1.5651,1.5659,1.5677,1.5678,1.5679,1.5688,1.569,1.5693,0,0,0,0,0,0,1.5603,1.5611,1.561,1.5623,1.5629,1.5635,1.5641,1.564,1.5646,1.5645,1.5644,1.5645,1.5657,1.5659,1.5652,1.5673,1.5665,1.5667,1.5671,1.5674,1.5676,1.5675,1.5644,0,0,0,0,0,1.5605,1.5614,1.562,1.5631,1.5634,1.5637,1.5642,1.5642,1.5647,1.5649,1.5652,1.5657,1.5665,1.5669,1.5676,1.569,1.5691,1.5696,1.5698,1.57,1.5701,1.571,1.5713,1.5684,1.5684,1.5684,0,0,1.5609,1.5615,1.562,1.5631,1.5636,1.5645,1.5639,1.5648,1.5655,1.565,1.5662,1.5665,1.567,1.5683,1.5689,1.5685,1.571,1.5701,1.5702,1.5703,1.5712,1.5714,1.5717,1.5685,1.5685,1.5684,0,0,1.5621,1.5626,1.5637,1.5642,1.565,1.5653,1.5656,1.5663,1.5665,1.5677,1.5675,1.5683,1.5695,1.57,1.5704,1.5722,1.5719,1.5724,1.5734,1.5743,1.5745,1.5747,1.5755,1.5758,1.5726,1.5726,1.5726,0,1.5625,1.5639,1.5642,1.5652,1.5658,1.5657,1.5668,1.5673,1.5682,1.5686,1.5682,1.57,1.5703,1.5718,1.5723,1.5726,1.573,1.5723,1.5745,1.5747,1.5749,1.5756,1.5759,1.5726,1.5726,1.5726,1.5726,0,1.5644,1.5654,1.5661,1.5673,1.568,1.569,1.5694,1.5701,1.5701,1.5705,1.5718,1.5723,1.5732,1.5735,1.5735,1.5751,1.5749,1.5745,1.5737,1.5752,1.5759,1.5762,1.5727,1.5727,1.5727,1.5727,0,0,1.5655,1.5671,1.5674,1.568,1.5691,1.5698,1.571,1.572,1.5726,1.5733,1.5743,1.5756,1.5753,1.5758,1.5758,1.5766,1.5783,1.5762,1.5762,1.5766,1.5803,1.5806,1.5809,1.5781,1.5782,1.5782,1.5803,0,1.5669,1.569,1.5694,1.5712,1.5722,1.5723,1.5733,1.5741,1.5745,1.5754,1.5759,1.5768,1.5763,1.5767,1.5775,1.5779,1.579,1.5778,1.579,1.5791,1.5789,1.5812,1.5815,1.5834,1.5805,1.5806,1.5806,0,1.5686,1.5697,1.5717,1.5729,1.5733,1.5742,1.5754,1.5763,1.5772,1.5775,1.5782,1.5783,1.5795,1.5788,1.5805,1.5797,1.5803,1.5806,1.5807,1.5808,1.5799,1.5814,1.584,1.5843,1.581,1.581,1.581,0,1.5694,1.5713,1.5728,1.5733,1.5747,1.5754,1.576,1.577,1.5777,1.5787,1.5792,1.5802,1.5808,1.5817,1.5821,1.5815,1.5838,1.5831,1.5841,1.5841,1.5845,1.5845,1.5872,1.5849,1.5849,1.5849,1.5849,0,1.5709,1.5721,1.5732,1.5741,1.5755,1.5761,1.5775,1.5781,1.579,1.58,1.5802,1.5811,1.5816,1.5826,1.5829,1.5844,1.5847,1.5849,1.585,1.5849,1.5849,1.5852,1.5851,1.585,1.5849,1.5849,1.5849,0,1.5719,1.5727,1.5743,1.5757,1.5761,1.5771,1.5782,1.5791,1.5797,1.581,1.5814,1.5822,1.5835,1.584,1.5855,1.5857,1.5875,1.5874,1.5872,1.5872,1.5883,1.5882,1.5913,1.5918,1.5891,1.5892,1.5892,0,1.5727,1.5737,1.5753,1.5761,1.5768,1.5781,1.5789,1.5796,1.5804,1.5818,1.5826,1.5839,1.585,1.5871,1.5878,1.589,1.589,1.59,1.5891,1.5891,1.5891,1.589,1.5892,1.5901,1.5902,1.5902,1.5902,0,1.5742,1.5747,1.5759,1.5774,1.5784,1.5796,1.5807,1.5813,1.5822,1.5831,1.5846,1.5855,1.5872,1.5886,1.5899,1.5905,1.5905,1.5905,1.5908,1.5907,1.5906,1.5908,1.5877,1.5904,1.5904,1.5904,1.5904,1.5903,1.5752,1.5762,1.5776,1.579,1.58,1.5812,1.5822,1.583,1.5843,1.5858,1.5862,1.5877,1.5889,1.5908,1.5914,1.5927,1.5924,1.5928,1.5929,1.593,1.5932,1.5905,1.5929,1.5929,1.5929,1.5929,1.5929,0,1.5768,1.5778,1.5791,1.5808,1.582,1.5822,1.5835,1.5845,1.5859,1.5871,1.5883,1.5901,1.5915,1.5925,1.5939,1.5947,1.5948,1.5951,1.595,1.5952,1.5933,1.5929,1.5951,1.5951,1.5951,1.5951,1.5951,1.5951,1.5777,1.5795,1.5802,1.5825,1.5834,1.5851,1.5859,1.587,1.588,1.59,1.5913,1.592,1.5931,1.5947,1.596,1.5963,1.5968,1.5972,1.5974,1.5955,1.5953,1.5951,1.5947,1.5973,1.5973,1.5992,1.5993,1.5993]}]]